• In United Kingdom
  • List of Countries
  • For 7 days
  • Water Temperature
  • Satellite Maps
  • Weather Map
  • Weather Widgets
  • user-avatar
    Login

    Hourly Weather Pabna

    Today, 22 April, Sunday

    Time Temperature Precipitation Wind Pressure Humidity
    00:00 +32°C° 0 mm 5 mps 751 mmHg 77%
    01:00 +30°C° 0.6 mm 4 mps 751 mmHg 79%
    02:00 +30°C° 0.6 mm 4 mps 751 mmHg 81%
    03:00 +30°C° 0.6 mm 3 mps 751 mmHg 84%
    04:00 +30°C° 0.2 mm 4 mps 751 mmHg 84%
    05:00 +30°C° 0.2 mm 4 mps 752 mmHg 84%
    06:00 +29°C° 0 mm 4 mps 752 mmHg 86%
    07:00 +32°C° 0.2 mm 4 mps 753 mmHg 79%
    08:00 +33°C° 0.2 mm 4 mps 753 mmHg 73%
    09:00 +34°C° 0.2 mm 4 mps 754 mmHg 67%
    10:00 +36°C° 0 mm 4 mps 753 mmHg 58%
    11:00 +38°C° 0 mm 3 mps 753 mmHg 49%
    12:00 +40°C° 0 mm 3 mps 753 mmHg 40%
    13:00 +40°C° 0 mm 3 mps 752 mmHg 37%
    14:00 +40°C° 0 mm 3 mps 751 mmHg 35%
    15:00 +40°C° 0 mm 2 mps 750 mmHg 32%
    16:00 +39°C° 0.5 mm 2 mps 750 mmHg 37%
    17:00 +38°C° 0.5 mm 2 mps 749 mmHg 41%
    18:00 +37°C° 0.5 mm 2 mps 749 mmHg 45%
    19:00 +36°C° 1.7 mm 4 mps 750 mmHg 51%
    20:00 +35°C° 1.7 mm 6 mps 751 mmHg 57%
    21:00 +34°C° 1.7 mm 7 mps 751 mmHg 63%
    22:00 +33°C° 0 mm 6 mps 751 mmHg 64%
    23:00 +33°C° 0 mm 5 mps 752 mmHg 65%

    Tomorrow, 23 April, Monday

    Time Temperature Precipitation Wind Pressure Humidity
    00:00 +33°C° 0 mm 3 mps 752 mmHg 66%
    01:00 +31°C° 0 mm 3 mps 751 mmHg 68%
    02:00 +31°C° 0 mm 3 mps 751 mmHg 70%
    03:00 +31°C° 0 mm 3 mps 751 mmHg 72%
    04:00 +30°C° 0 mm 3 mps 751 mmHg 74%
    05:00 +30°C° 0 mm 3 mps 752 mmHg 77%
    06:00 +29°C° 0 mm 3 mps 752 mmHg 80%
    07:00 +31°C° 0 mm 3 mps 753 mmHg 73%
    08:00 +33°C° 0 mm 3 mps 753 mmHg 67%
    09:00 +35°C° 0 mm 3 mps 754 mmHg 60%
    10:00 +36°C° 0 mm 3 mps 753 mmHg 53%
    11:00 +38°C° 0 mm 3 mps 753 mmHg 45%
    12:00 +40°C° 0 mm 3 mps 753 mmHg 37%
    13:00 +42°C° 0 mm 3 mps 752 mmHg 32%
    14:00 +43°C° 0 mm 3 mps 751 mmHg 27%
    15:00 +44°C° 0 mm 3 mps 750 mmHg 21%
    16:00 +43°C° 0 mm 3 mps 750 mmHg 22%
    17:00 +41°C° 0 mm 2 mps 749 mmHg 23%
    18:00 +40°C° 0 mm 2 mps 749 mmHg 24%
    19:00 +39°C° 0 mm 3 mps 750 mmHg 28%
    20:00 +37°C° 0 mm 3 mps 750 mmHg 31%
    21:00 +36°C° 0 mm 3 mps 751 mmHg 35%
    22:00 +35°C° 0 mm 4 mps 751 mmHg 45%
    23:00 +34°C° 0 mm 5 mps 751 mmHg 56%

    Day after tomorrow, 24 April, Tuesday

    Time Temperature Precipitation Wind Pressure Humidity
    00:00 +33°C° 0 mm 6 mps 752 mmHg 67%
    01:00 +33°C° 0 mm 5 mps 751 mmHg 68%
    02:00 +32°C° 0 mm 4 mps 751 mmHg 69%
    03:00 +31°C° 0 mm 3 mps 751 mmHg 71%
    04:00 +31°C° 0 mm 3 mps 751 mmHg 72%
    05:00 +30°C° 0 mm 2 mps 751 mmHg 73%
    06:00 +30°C° 0 mm 2 mps 751 mmHg 74%
    07:00 +32°C° 0 mm 2 mps 752 mmHg 66%
    08:00 +34°C° 0 mm 3 mps 753 mmHg 58%
    09:00 +36°C° 0 mm 3 mps 753 mmHg 50%
    10:00 +38°C° 0 mm 3 mps 753 mmHg 42%
    11:00 +40°C° 0 mm 3 mps 753 mmHg 35%
    12:00 +42°C° 0 mm 3 mps 752 mmHg 27%
    13:00 +43°C° 0 mm 3 mps 752 mmHg 22%
    14:00 +44°C° 0 mm 4 mps 751 mmHg 16%
    15:00 +45°C° 0 mm 4 mps 750 mmHg 11%
    16:00 +44°C° 0 mm 3 mps 749 mmHg 11%
    17:00 +43°C° 0 mm 3 mps 749 mmHg 11%
    18:00 +41°C° 0 mm 2 mps 749 mmHg 12%
    19:00 +40°C° 0 mm 3 mps 749 mmHg 16%
    20:00 +38°C° 0 mm 3 mps 750 mmHg 21%
    21:00 +36°C° 0 mm 4 mps 750 mmHg 26%
    22:00 +35°C° 0 mm 4 mps 750 mmHg 36%
    23:00 +34°C° 0 mm 4 mps 751 mmHg 46%

    25 April, Wednesday

    Time Temperature Precipitation Wind Pressure Humidity
    00:00 +33°C° 0 mm 4 mps 751 mmHg 56%
    01:00 +33°C° 0 mm 4 mps 750 mmHg 61%
    02:00 +32°C° 0 mm 4 mps 750 mmHg 66%
    03:00 +30°C° 0 mm 4 mps 750 mmHg 71%
    04:00 +30°C° 0 mm 4 mps 750 mmHg 74%
    05:00 +30°C° 0 mm 4 mps 751 mmHg 77%
    06:00 +29°C° 0 mm 3 mps 751 mmHg 81%
    07:00 +32°C° 0 mm 4 mps 752 mmHg 74%
    08:00 +34°C° 0 mm 4 mps 752 mmHg 66%
    09:00 +35°C° 0 mm 5 mps 753 mmHg 59%
    10:00 +37°C° 0 mm 4 mps 753 mmHg 51%
    11:00 +40°C° 0 mm 4 mps 752 mmHg 43%
    12:00 +42°C° 0 mm 4 mps 752 mmHg 35%
    13:00 +42°C° 0.1 mm 4 mps 751 mmHg 32%
    14:00 +42°C° 0.1 mm 4 mps 750 mmHg 28%
    15:00 +42°C° 0.1 mm 4 mps 749 mmHg 25%
    16:00 +40°C° 3.7 mm 4 mps 748 mmHg 35%
    17:00 +36°C° 3.7 mm 4 mps 748 mmHg 45%
    18:00 +33°C° 3.7 mm 5 mps 748 mmHg 55%
    19:00 +32°C° 1.1 mm 6 mps 749 mmHg 59%
    20:00 +30°C° 1.1 mm 7 mps 750 mmHg 64%
    21:00 +30°C° 1.1 mm 7 mps 751 mmHg 68%
    22:00 +30°C° 0 mm 6 mps 751 mmHg 68%
    23:00 +30°C° 0 mm 5 mps 751 mmHg 67%

    26 April, Thursday

    Time Temperature Precipitation Wind Pressure Humidity
    00:00 +30°C° 0 mm 4 mps 751 mmHg 67%
    01:00 +30°C° 0 mm 4 mps 751 mmHg 71%
    02:00 +29°C° 0 mm 4 mps 751 mmHg 75%
    03:00 +29°C° 0 mm 4 mps 750 mmHg 80%
    04:00 +29°C° 0.5 mm 4 mps 751 mmHg 81%
    05:00 +29°C° 0.5 mm 4 mps 751 mmHg 82%
    06:00 +28°C° 0.5 mm 4 mps 752 mmHg 83%
    07:00 +30°C° 0 mm 4 mps 752 mmHg 78%
    08:00 +32°C° 0 mm 5 mps 753 mmHg 73%
    09:00 +33°C° 0 mm 5 mps 754 mmHg 68%
    10:00 +34°C° 0 mm 5 mps 753 mmHg 65%
    11:00 +35°C° 0 mm 4 mps 753 mmHg 61%
    12:00 +35°C° 0 mm 4 mps 753 mmHg 58%
    13:00 +37°C° 0 mm 4 mps 752 mmHg 53%
    14:00 +38°C° 0 mm 3 mps 751 mmHg 49%
    15:00 +39°C° 0 mm 3 mps 750 mmHg 44%
    16:00 +38°C° 1.2 mm 4 mps 750 mmHg 48%
    17:00 +37°C° 1.2 mm 4 mps 750 mmHg 52%
    18:00 +36°C° 1.2 mm 5 mps 750 mmHg 56%
    19:00 +35°C° 1.1 mm 5 mps 750 mmHg 60%
    20:00 +34°C° 1.1 mm 6 mps 751 mmHg 64%
    21:00 +32°C° 1.1 mm 7 mps 752 mmHg 68%
    22:00 +32°C° 0 mm 6 mps 752 mmHg 70%
    23:00 +30°C° 0 mm 5 mps 752 mmHg 73%

    27 April, Friday

    Time Temperature Precipitation Wind Pressure Humidity
    00:00 +30°C° 0 mm 4 mps 752 mmHg 76%
    01:00 +30°C° 0.1 mm 4 mps 752 mmHg 77%
    02:00 +30°C° 0.1 mm 3 mps 752 mmHg 79%
    03:00 +29°C° 0.1 mm 2 mps 752 mmHg 81%
    04:00 +29°C° 0.1 mm 3 mps 753 mmHg 82%
    05:00 +29°C° 0.1 mm 3 mps 753 mmHg 82%
    06:00 +29°C° 0.1 mm 4 mps 753 mmHg 83%
    07:00 +30°C° 0 mm 4 mps 754 mmHg 77%
    08:00 +33°C° 0 mm 4 mps 754 mmHg 71%
    09:00 +34°C° 0 mm 4 mps 755 mmHg 64%
    10:00 +35°C° 0 mm 4 mps 755 mmHg 58%
    11:00 +37°C° 0 mm 4 mps 754 mmHg 52%
    12:00 +38°C° 0 mm 4 mps 754 mmHg 46%
    13:00 +37°C° 1.3 mm 5 mps 753 mmHg 49%
    14:00 +36°C° 1.3 mm 7 mps 753 mmHg 51%
    15:00 +35°C° 1.3 mm 8 mps 752 mmHg 54%
    16:00 +33°C° 6.4 mm 8 mps 751 mmHg 62%
    17:00 +31°C° 6.4 mm 9 mps 751 mmHg 70%
    18:00 +28°C° 6.4 mm 9 mps 751 mmHg 78%
    19:00 +28°C° 1.5 mm 9 mps 752 mmHg 77%
    20:00 +28°C° 1.5 mm 8 mps 753 mmHg 77%
    21:00 +28°C° 1.5 mm 8 mps 754 mmHg 76%
    22:00 +28°C° 0 mm 7 mps 754 mmHg 76%
    23:00 +28°C° 0 mm 6 mps 754 mmHg 76%
    Show more